KINEIS-4D

Last updated on Fri Sep 11 2026 00:02:53 GMT+0000 (Coordinated Universal Time)

1 63302U 25056C 26253.55781352 .00001050 00000+0 17362-3 0 9993 2 63302 97.9106 15.3307 0003718 76.2545 283.9076 14.72342745 79690
UTC large
Height (km)
Speed (km/s)
/
Latitude / Longitude
Inclination (degrees)
Orbital Period (minutes)
Azimuth
Elevation
Range (km)
Doppler Factor

Next 0 passes for location: London (51.5072 / 0.1276)

No passes found over London.
KINEIS-4D